Location: Eurasberg
(48.3353°N, 11.0839°E)
Time: 07:12:12
(UTC+00:00)

CZ-4 R/B - Pass Details

Date: 18 January 2026
Orbit: 676 x 743 km, 98.7° (Epoch: 10 February)

Event Time Altitude Azimuth Distance (km) Brightness Sun altitude
Rises 04:51:08 0° 13° (NNE) 3,104 7.2 -20.9°
Reaches altitude 10° 04:53:23 10° 12° (NNE) 2,191 6.4 -20.5°
Maximum altitude 04:58:11 76° 287° (WNW) 745 3.7 -19.7°
Drops below altitude 10° 05:03:02 10° 203° (SSW) 2,217 6.3 -18.9°
Sets 05:05:19 0° 201° (SSW) 3,143 7.1 -18.6°
